Regional Weather Roundup
Issued by NWS Grand Forks, ND

Home | Current Version | Previous Version | Graphics & Text | Print | Product List | Glossary On
Versions: 1 2 3 4 5 6 7 8 9 10 11 12 13 14 15 16 17 18 19 20 21 22 23 24 25 26 27 28 29 30 31 32 33 34 35 36 37 38 39 40 41 42 43 44 45 46 47 48 49 50
000
ASUS43 KFGF 241631
RWRFGF
PRAIRIE TO PINES  WEATHER ROUNDUP
NATIONAL WEATHER SERVICE EASTERN NORTH DAKOTA/GRAND FORKS ND
1100 AM CDT SAT JUN 24 2017

 **SATELLITE DATA USED TO AUGMENT SKY COVER AT AUTOMATED STATIONS**
 *****  WEATHER ACROSS EASTERN NORTH DAKOTA  *****

CITY           SKY/WX    TMP DP  RH WIND       PRES   REMARKS
GRAND FORKS    PTSUNNY   56  47  71 NW16      30.01R
GRAND FRKS AFB DRIZZLE   55  46  71 NW15G21   30.02S
DEVILS LAKE    CLOUDY    52  43  71 NW22      30.09R
FARGO          PTSUNNY   60  48  64 NW16      30.03S
WAHPETON ARPT  CLOUDY    57  41  54 NW16      30.05S
$$

 ***** WEATHER ACROSS CENTRAL AND WESTERN NORTH DAKOTA  *****

CITY           SKY/WX    TMP DP  RH WIND       PRES   REMARKS
BISMARCK       FAIR      56  38  50 NW23G35   30.20R
MINOT          CLOUDY    52  42  69 NW21G29   30.18R
JAMESTOWN      CLOUDY    55  40  56 NW18G29   30.09R
MINOT AFB      CLOUDY    51  42  71 NW20G26   30.18R
GARRISON         N/A     52  37  56 N23       30.19S
WILLISTON      FAIR      60  36  40 NW22G28   30.28S
DICKINSON      FAIR      58  30  34 NW24G36   30.23R
HETTINGER      FAIR      61  33  35 NW21G32   30.26R
$$

 *****  OTHER AIRPORT OBSERVATIONS IN OUR AREA  *****

CITY           SKY/WX    TMP DP  RH WIND       PRES   REMARKS
WALHALLA       NOT AVBL
GRAFTON AIRPOR CLOUDY    52  52 100 W14       30.03R FOG
VALLEY CITY AR CLOUDY    55  43  62 NW16G29   30.09S
CANDO          NOT AVBL
CAVALIER APRT  NOT AVBL
GWINNER        CLOUDY    57  41  54 W16G24    30.08R
SHEYENNE NWR     N/A     59  44  58 NW14      29.95S
ROLLA            N/A     48  48 100 NW20G30   30.11R
 ***** THE ABOVE OBSERVATIONS ARE NON NWS ARE NOT QUALITY
       CONTROLLED AND MAY MIS-REPORT RAIN FOR SNOW...
$$

  *****  WEATHER ACROSS NORTHERN MINNESOTA  *****

CITY           SKY/WX    TMP DP  RH WIND       PRES   REMARKS
FLAG ISLAND    CLOUDY    54  46  76 NW9       29.93R
WARROAD        CLOUDY    54  50  87 W9        29.96R
ROSEAU         CLOUDY    52  46  82 W8        29.96S HAZE
HALLOCK        CLOUDY    54  52  94 W14       29.97F FOG
THF RVR FALLS  CLOUDY    54  44  69 W16       30.00R
BAUDETTE       CLOUDY    53  47  79 NW13      29.94R
WASKISH        CLOUDY    59  46  63 W12       29.95R
CROOKSTON      CLOUDY    55  46  71 NW16G23   30.01R
STEPHEN NDAWN    N/A     54  48  82 NW13        N/A
GREENBUSH NDAW   N/A     54  46  76 W12         N/A
$$
  *****  WEATHER ACROSS CENTRAL AND WEST MINNESOTA  *****

CITY           SKY/WX    TMP DP  RH WIND       PRES   REMARKS
FOSSTON        CLOUDY    54  45  71 NW10G18   30.00R
BEMIDJI        RAIN      54  47  78 NW10      29.97S
PARK RAPIDS    PTSUNNY   58  41  53 NW15G22   29.98S
ELBOW LAKE     PTSUNNY   56  45  66 W20G26    30.05R
WADENA         DRIZZLE   50  45  81 W8        30.01R
DETROIT LAKES  FAIR      55  45  67 NW13      30.02S
MOORHEAD       FAIR      57  46  67 NW15      30.04S
FERGUS FALLS   PTSUNNY   55  45  67 NW17      30.02S
MORRIS MN      FAIR      61  39  44 NW18G25   30.04R
STAPLES        PTSUNNY   57  39  51 W21G31    29.99R
$$
  *****  WEATHER ELSEWHERE ACROSS MINNESOTA  *****

CITY           SKY/WX    TMP DP  RH WIND       PRES   REMARKS
DULUTH         CLOUDY    56  47  71 NW15G24   29.91R
INTRNTL FALLS  CLOUDY    58  46  64 W12G21    29.92R
ELY            CLOUDY    54  50  87 W9        29.89R
CLOQUET        PTSUNNY   61  46  59 NW12G20   29.93S
WHEATON        PTSUNNY   59  39  47 NW14G20   30.07R
BRAINERD       FAIR      59  42  53 W12       29.98S
HIBBING        CLOUDY    55  47  74 NW10      29.92R
ALEXANDRIA     PTSUNNY   57  43  59 NW20G25   30.03S
SAINT CLOUD    CLOUDY    61  42  49 W14       30.00F
MINNEAPOLIS    FAIR      64  42  44 W17G23    30.01F
$$

  *****  WEATHER ACROSS SOUTH DAKOTA  *****

CITY           SKY/WX    TMP DP  RH WIND       PRES   REMARKS
SIOUX FALLS    FAIR      69  44  40 W15G26    30.09F
BROOKINGS      FAIR      61  43  51 NW21      30.09R
WATERTOWN      FAIR      59  41  51 NW18G24   30.08R
HURON          FAIR      66  41  40 NW21G29   30.13R
SISSETON         N/A     60  42  51 NW21G29   30.06R
ABERDEEN       FAIR      61  39  44 NW23G31   30.13R
MITCHELL       FAIR      71  38  29 NW24G32   30.13S
PIERRE         FAIR      64  39  39 NW17G25   30.20R
MOBRIDGE       FAIR      64  33  31 NW25G32   30.14S
RAPID CITY     FAIR      69  33  26 NW21G29   30.27S
$$

  *****  SOME WEATHER IN NEARBY STATES *****

CITY           SKY/WX    TMP DP  RH WIND       PRES   REMARKS
GLASGOW MT     FAIR      61  36  39 VRB3      30.31S
GREAT FALLS MT FAIR      64  38  38 SE3       30.35S
CHEYENNE WY    PTSUNNY   59  30  33 SE8       30.37S
SCOTTSBLUFF NE CLOUDY    63  38  39 MISG      30.32R
OMAHA NE       FAIR      73  43  33 W13       30.18S
DES MOINES IA  FAIR      71  37  28 NW14      30.14R
DAVENPORT IA   FAIR      67  47  48 W18G30    30.07R
CHICAGO IL     PTSUNNY   72  53  51 W9G21     29.96R
EAU CLAIRE WI  CLOUDY    62  40  44 W13G23    29.97R
LA CROSSE WI   PTSUNNY   68  45  43 NW14G22   30.00R
$$

  *****  SOME NATIONAL WEATHER *****

CITY           SKY/WX    TMP DP  RH WIND       PRES   REMARKS
LA GUARDIA NY  FAIR      83  62  49 NW22G30   29.67R
RALEIGH NC     PTSUNNY   87  72  60 SW10      29.95S HX  93
ATLANTA GA     LGT RAIN  76  74  93 SW5       30.04S
NEW ORLEANS LA PTSUNNY   87  78  74 VRB3      30.04R HX 100
OKLAHOMA CITY  PTSUNNY   75  53  46 NE13      30.23R
ALBUQUERQUE NM CLOUDY    75  52  44 E20       30.26F
SALT LAKE CITY FAIR      76  37  24 CALM      30.21S
LOS ANGELES CA PTSUNNY   66  61  84 SW7       29.90F
BOISE ID       FAIR      68  42  38 N3        30.20S
SEATTLE WA     FAIR      72  54  53 N12       30.15S
$$

*** WEATHER ACROSS MANITOBA...SASKATCHEWAN AND ONTARIO ***
                ***ONTARIO***

CITY           SKY/WX    TMP DP  RH WIND       PRES   REMARKS
GERALDTON      PTSUNNY   63  50  63 N10       29.85R
THUNDER BAY    PTSUNNY   66  54  63 E12G18    29.82S
SIOUX LOOKOUT  LGT RAIN  59  54  82 N3        29.89R
TORONTO        MOSUNNY   73  54  49 W15G22    29.76R
BIG TROUT LK   CLOUDY    50  39  66 NE5       30.00S
PICKLE LAKE    PTSUNNY   59  43  55 NE6       29.91R
DRYDEN         CLOUDY    57  55  94 W8        29.89R
KENORA         LGT RAIN  52  50  93 NW7       29.92R
$$
                *** MANITOBA***

CITY           SKY/WX    TMP DP  RH WIND       PRES   REMARKS
BRANDON        LGT RAIN  52  46  82 N15G22    30.11R
DAUPHIN        PTSUNNY   54  46  76 N16G25    30.15R
ISLAND LAKE    PTSUNNY   55  37  50 N12G18    30.08S
PILOT MOUND      N/A     48  46  93 N17G24      N/A
THE PAS        LGT RAIN  50  45  81 NW3       30.21R
THOMPSON       PTSUNNY   57  32  38 NW8       30.12S
WINNIPEG       LGT RAIN  52  50  93 N21G29    29.97R
LYNN LAKE      CLOUDY    57  36  44 N10       30.16S
CHURCHILL      MOSUNNY   46  41  81 N12G17    30.07R
GILLAM         CLOUDY    59  36  41 NW13      30.05F
$$
                ***SASKATCHEWAN***

CITY           SKY/WX    TMP DP  RH WIND       PRES   REMARKS
ESTEVAN        PTSUNNY   52  41  66 NW17G23   30.25S
KINDERSLEY     MOSUNNY   63  43  48 NW7       30.27S
LLOYDMINSTER   MOSUNNY   64  43  45 SW8       30.24S
PRINCE ALBERT  MOSUNNY   57  45  62 W5        30.26F
REGINA         MOSUNNY   55  39  54 N12G17    30.29S
YORKTON        PTSUNNY   52  41  66 N17G25    30.22S
N. BATTLEFORD  MOSUNNY   59  45  58 W6        30.27S
LA RONGE       PTSUNNY   59  41  51 CALM      30.23S
SASKATOON      MOSUNNY   61  45  55 W6        30.27S
SWIFT CURRENT  SUNNY     61  45  55 N6        30.29S
$$
NOTE: THESE ARE AUTOMATED STATIONS WITH LIMITED QUALITY CONTROL
      "FAIR" INDICATES FEW OR NO CLOUDS BELOW 12,000 FEET WITH NO
      SIGNIFICANT WEATHER AND/OR OBSTRUCTIONS TO VISIBILITY.
      SKY/WX - SKY CONDITION AND SIGNIFICANT WEATHER.
      TMP - AIR TEMPERATURE.    DP   - DEWPOINT TEMPERATURE.
      RH  - RELATIVE HUMIDITY.  PRES - PRESSURE.
      HX  - HEAT INDEX.         WCI  - WIND CHILL INDEX.
$




USA.gov is the U.S. government's official web portal to all federal, state and local government web resources and services.